DAL8976 SLVR-SANT

Flight info

Callsign DAL8976
Flight time 1h 29m
Altitude 40000
Route ANBUN DCT PUBUM DCT PONPI PONPI1U
Aircraft A359/H-SDE2E3GHIJ3J4J5LM1ORWXY/LB1D1

Departure

Time 2026-04-20 01:57
Airport Viru Viru International Airport (SLVR)

Arrival

Time 2026-04-20 03:27
Airport Teniente Benjamín Matienzo International Airport (SANT)
Time Latitude Longitude Altitude Speed Heading
2026-04-20 01:39 -17.64810 -63.13924 1235 ft 0 kts 152°
2026-04-20 01:46 -17.64806 -63.13926 1251 ft 2 kts 152°
2026-04-20 01:46 -17.64789 -63.13936 1251 ft 3 kts 152°
2026-04-20 01:46 -17.64771 -63.13946 1251 ft 3 kts 152°
2026-04-20 01:47 -17.64755 -63.13955 1251 ft 4 kts 152°
2026-04-20 01:50 -17.64768 -63.13948 1251 ft 0 kts 151°
2026-04-20 01:51 -17.64768 -63.13947 1251 ft 2 kts 151°
2026-04-20 01:51 -17.64773 -63.13944 1251 ft 0 kts 151°
2026-04-20 01:52 -17.64779 -63.13919 1247 ft 5 kts 92°
2026-04-20 01:52 -17.64799 -63.13870 1245 ft 13 kts 126°
2026-04-20 01:52 -17.64870 -63.13797 1239 ft 14 kts 120°
2026-04-20 01:52 -17.64850 -63.13700 1242 ft 15 kts 60°
2026-04-20 01:53 -17.64799 -63.13607 1244 ft 15 kts 77°
2026-04-20 01:53 -17.64852 -63.13526 1252 ft 15 kts 143°
2026-04-20 01:53 -17.64942 -63.13465 1241 ft 16 kts 149°
2026-04-20 01:53 -17.65038 -63.13396 1246 ft 18 kts 145°
2026-04-20 01:54 -17.65144 -63.13323 1241 ft 19 kts 147°
2026-04-20 01:54 -17.65259 -63.13246 1243 ft 20 kts 147°
2026-04-20 01:54 -17.65382 -63.13166 1245 ft 22 kts 147°
2026-04-20 01:54 -17.65512 -63.13079 1254 ft 23 kts 147°
2026-04-20 01:55 -17.65649 -63.12986 1242 ft 24 kts 147°
2026-04-20 01:55 -17.65772 -63.12905 1253 ft 13 kts 147°
2026-04-20 01:55 -17.65821 -63.12871 1251 ft 9 kts 147°
2026-04-20 01:55 -17.65865 -63.12820 1254 ft 10 kts 111°
2026-04-20 01:56 -17.65852 -63.12747 1255 ft 11 kts 62°
2026-04-20 01:56 -17.65806 -63.12679 1252 ft 11 kts 37°
2026-04-20 01:56 -17.65743 -63.12694 1254 ft 10 kts 327°
2026-04-20 01:56 -17.65574 -63.12808 1255 ft 69 kts 327°
2026-04-20 01:57 -17.64904 -63.13257 1244 ft 157 kts 327°
2026-04-20 01:57 -17.63850 -63.13987 1702 ft 199 kts 326°
2026-04-20 01:57 -17.62628 -63.14886 2488 ft 226 kts 327°
2026-04-20 01:57 -17.61211 -63.15650 3262 ft 229 kts 349°
2026-04-20 01:58 -17.59653 -63.15454 3942 ft 231 kts 20°
2026-04-20 01:58 -17.58338 -63.14439 4453 ft 244 kts 46°
2026-04-20 01:58 -17.57614 -63.12796 4955 ft 257 kts 77°
2026-04-20 01:58 -17.57798 -63.10960 5578 ft 263 kts 109°
2026-04-20 01:59 -17.58918 -63.09446 6115 ft 270 kts 144°
2026-04-20 01:59 -17.60684 -63.08807 6610 ft 271 kts 179°
2026-04-20 01:59 -17.62569 -63.08910 7124 ft 272 kts 188°
2026-04-20 01:59 -17.64457 -63.09132 7674 ft 275 kts 188°
2026-04-20 02:00 -17.66368 -63.09351 8188 ft 277 kts 187°
2026-04-20 02:00 -17.68300 -63.09557 8716 ft 280 kts 187°
2026-04-20 02:00 -17.70247 -63.09755 9251 ft 282 kts 187°
2026-04-20 02:00 -17.72212 -63.09950 9817 ft 284 kts 186°
2026-04-20 02:01 -17.74199 -63.10013 10283 ft 288 kts 174°
2026-04-20 02:01 -17.76104 -63.09384 10786 ft 288 kts 152°
2026-04-20 02:01 -17.77852 -63.08347 11277 ft 290 kts 148°
2026-04-20 02:01 -17.79591 -63.07249 11711 ft 295 kts 148°
2026-04-20 02:02 -17.81398 -63.06112 11923 ft 309 kts 148°
2026-04-20 02:02 -17.83287 -63.04931 12121 ft 323 kts 148°
2026-04-20 02:02 -17.85256 -63.03705 12320 ft 336 kts 148°
2026-04-20 02:02 -17.87303 -63.02435 12517 ft 348 kts 148°
2026-04-20 02:03 -17.89422 -63.01121 12704 ft 359 kts 148°
2026-04-20 02:03 -17.91607 -62.99768 12878 ft 369 kts 148°
2026-04-20 02:03 -17.93849 -62.98379 13061 ft 379 kts 148°
2026-04-20 02:03 -17.96107 -62.96981 13331 ft 384 kts 148°
2026-04-20 02:04 -17.98415 -62.95552 13695 ft 386 kts 148°
2026-04-20 02:04 -18.00737 -62.94113 14020 ft 388 kts 148°
2026-04-20 02:04 -18.03065 -62.92670 14344 ft 390 kts 148°
2026-04-20 02:04 -18.05415 -62.91213 14689 ft 392 kts 148°
2026-04-20 02:05 -18.07770 -62.89758 15024 ft 394 kts 149°
2026-04-20 02:05 -18.10272 -62.88560 15338 ft 397 kts 162°
2026-04-20 02:05 -18.13000 -62.88117 15662 ft 399 kts 180°
2026-04-20 02:05 -18.15743 -62.88564 15960 ft 400 kts 198°
2026-04-20 02:06 -18.18271 -62.89779 16316 ft 400 kts 210°
2026-04-20 02:06 -18.20694 -62.91229 16673 ft 402 kts 211°
2026-04-20 02:06 -18.23092 -62.92689 16979 ft 404 kts 211°
2026-04-20 02:06 -18.25536 -62.94169 17303 ft 406 kts 211°
2026-04-20 02:07 -18.27991 -62.95649 17660 ft 407 kts 211°
2026-04-20 02:07 -18.30457 -62.97131 18029 ft 408 kts 211°
2026-04-20 02:07 -18.32935 -62.98619 18302 ft 411 kts 211°
2026-04-20 02:07 -18.35421 -63.00110 18562 ft 413 kts 211°
2026-04-20 02:08 -18.37929 -63.01614 18879 ft 414 kts 211°
2026-04-20 02:08 -18.40432 -63.03115 19186 ft 415 kts 211°
2026-04-20 02:08 -18.42948 -63.04624 19421 ft 418 kts 211°
2026-04-20 02:08 -18.45480 -63.06144 19687 ft 420 kts 211°
2026-04-20 02:09 -18.47165 -63.07155 19865 ft 421 kts 211°
2026-04-20 02:09 -18.49717 -63.08687 20180 ft 421 kts 211°
2026-04-20 02:09 -18.52259 -63.10213 20526 ft 421 kts 211°
2026-04-20 02:09 -18.54816 -63.11749 20779 ft 424 kts 211°
2026-04-20 02:10 -18.57382 -63.13291 21046 ft 425 kts 212°
2026-04-20 02:10 -18.59960 -63.14840 21338 ft 427 kts 212°
2026-04-20 02:10 -18.62545 -63.16396 21620 ft 427 kts 211°
2026-04-20 02:10 -18.65128 -63.17950 21898 ft 429 kts 212°
2026-04-20 02:11 -18.67724 -63.19512 22135 ft 431 kts 212°
2026-04-20 02:11 -18.70331 -63.21082 22404 ft 432 kts 211°
2026-04-20 02:11 -18.72945 -63.22656 22701 ft 433 kts 211°
2026-04-20 02:11 -18.75561 -63.24233 22953 ft 434 kts 211°
2026-04-20 02:12 -18.78190 -63.25818 23206 ft 435 kts 211°
2026-04-20 02:12 -18.80821 -63.27404 23450 ft 437 kts 211°
2026-04-20 02:12 -18.83469 -63.29000 23655 ft 438 kts 211°
2026-04-20 02:12 -18.86117 -63.30598 23870 ft 439 kts 211°
2026-04-20 02:13 -18.88771 -63.32200 24086 ft 440 kts 211°
2026-04-20 02:13 -18.91437 -63.33809 24304 ft 441 kts 211°
2026-04-20 02:13 -18.94173 -63.35289 24514 ft 443 kts 205°
2026-04-20 02:13 -18.97069 -63.36344 24721 ft 446 kts 197°
2026-04-20 02:14 -19.00087 -63.37124 24924 ft 448 kts 194°
2026-04-20 02:14 -19.03149 -63.37788 25134 ft 450 kts 193°
2026-04-20 02:14 -19.06229 -63.38399 25335 ft 451 kts 192°
2026-04-20 02:14 -19.09319 -63.39000 25539 ft 452 kts 192°
2026-04-20 02:15 -19.12421 -63.39609 25732 ft 454 kts 193°
2026-04-20 02:15 -19.15530 -63.40232 25938 ft 455 kts 193°
2026-04-20 02:15 -19.18644 -63.40869 26142 ft 457 kts 193°
2026-04-20 02:15 -19.21769 -63.41518 26383 ft 457 kts 193°
2026-04-20 02:16 -19.24899 -63.42170 26557 ft 459 kts 193°
2026-04-20 02:16 -19.28040 -63.42827 26800 ft 460 kts 194°
2026-04-20 02:16 -19.31185 -63.43487 27024 ft 461 kts 194°
2026-04-20 02:16 -19.34336 -63.44148 27260 ft 462 kts 194°
2026-04-20 02:17 -19.37493 -63.44812 27463 ft 464 kts 194°
2026-04-20 02:17 -19.40663 -63.45477 27681 ft 466 kts 194°
2026-04-20 02:17 -19.43852 -63.46146 27862 ft 468 kts 194°
2026-04-20 02:17 -19.47052 -63.46817 28084 ft 469 kts 194°
2026-04-20 02:18 -19.50261 -63.47489 28300 ft 471 kts 194°
2026-04-20 02:18 -19.53486 -63.48165 28514 ft 472 kts 194°
2026-04-20 02:18 -19.56671 -63.48834 28732 ft 474 kts 194°
2026-04-20 02:18 -19.59909 -63.49514 28946 ft 475 kts 195°
2026-04-20 02:19 -19.63167 -63.50198 29173 ft 477 kts 195°
2026-04-20 02:19 -19.66429 -63.50884 29387 ft 478 kts 195°
2026-04-20 02:19 -19.69702 -63.51572 29603 ft 480 kts 195°
2026-04-20 02:19 -19.72994 -63.52262 29771 ft 484 kts 195°
2026-04-20 02:20 -19.76310 -63.52959 29919 ft 487 kts 195°
2026-04-20 02:20 -19.79633 -63.53659 30127 ft 488 kts 195°
2026-04-20 02:20 -19.82968 -63.54362 30354 ft 489 kts 195°
2026-04-20 02:20 -19.86275 -63.55058 30566 ft 490 kts 195°
2026-04-20 02:21 -19.92983 -63.56472 31019 ft 493 kts 195°
2026-04-20 02:21 -19.96351 -63.57182 31227 ft 494 kts 195°
2026-04-20 02:21 -19.99724 -63.57895 31444 ft 495 kts 195°
2026-04-20 02:22 -20.03113 -63.58610 31669 ft 497 kts 195°
2026-04-20 02:22 -20.06510 -63.59330 31858 ft 498 kts 196°
2026-04-20 02:22 -20.09908 -63.60048 32075 ft 499 kts 195°
2026-04-20 02:22 -20.13328 -63.60770 32272 ft 499 kts 195°
2026-04-20 02:23 -20.16743 -63.61491 32452 ft 501 kts 195°
2026-04-20 02:23 -20.20170 -63.62215 32645 ft 502 kts 195°
2026-04-20 02:23 -20.23602 -63.62941 32834 ft 504 kts 196°
2026-04-20 02:23 -20.27004 -63.63658 33023 ft 505 kts 196°
2026-04-20 02:24 -20.30461 -63.64389 33144 ft 507 kts 196°
2026-04-20 02:24 -20.33924 -63.65125 33374 ft 507 kts 196°
2026-04-20 02:24 -20.37390 -63.65860 33551 ft 508 kts 196°
2026-04-20 02:24 -20.40862 -63.66592 33765 ft 509 kts 196°
2026-04-20 02:25 -20.44330 -63.67327 34039 ft 508 kts 196°
2026-04-20 02:25 -20.47793 -63.68063 34304 ft 506 kts 196°
2026-04-20 02:25 -20.51237 -63.68795 34579 ft 505 kts 196°
2026-04-20 02:25 -20.54687 -63.69529 34856 ft 504 kts 196°
2026-04-20 02:26 -20.58124 -63.70260 35133 ft 503 kts 196°
2026-04-20 02:26 -20.61553 -63.70987 35426 ft 502 kts 197°
2026-04-20 02:26 -20.64971 -63.71714 35728 ft 501 kts 197°
2026-04-20 02:26 -20.68388 -63.72441 36026 ft 499 kts 197°
2026-04-20 02:27 -20.71788 -63.73167 36313 ft 498 kts 197°
2026-04-20 02:27 -20.75186 -63.73892 36602 ft 497 kts 197°
2026-04-20 02:27 -20.78575 -63.74615 36888 ft 497 kts 197°
2026-04-20 02:27 -20.81958 -63.75337 37181 ft 495 kts 197°
2026-04-20 02:28 -20.85292 -63.76049 37467 ft 494 kts 198°
2026-04-20 02:28 -20.88660 -63.76768 37773 ft 493 kts 198°
2026-04-20 02:28 -20.92014 -63.77484 38060 ft 491 kts 198°
2026-04-20 02:28 -20.95370 -63.78201 38338 ft 490 kts 198°
2026-04-20 02:29 -20.98712 -63.78916 38556 ft 490 kts 198°
2026-04-20 02:29 -21.02060 -63.79633 38751 ft 490 kts 198°
2026-04-20 02:29 -21.05405 -63.80349 38925 ft 490 kts 198°
2026-04-20 02:29 -21.08746 -63.81065 39106 ft 489 kts 198°
2026-04-20 02:30 -21.12084 -63.81780 39305 ft 489 kts 198°
2026-04-20 02:30 -21.15420 -63.82495 39503 ft 489 kts 198°
2026-04-20 02:30 -21.18747 -63.83208 39700 ft 488 kts 198°
2026-04-20 02:30 -21.22082 -63.83924 39841 ft 489 kts 198°
2026-04-20 02:31 -21.25416 -63.84649 39874 ft 488 kts 198°
2026-04-20 02:31 -21.32074 -63.86081 39883 ft 488 kts 198°
2026-04-20 02:32 -21.38729 -63.87504 39911 ft 488 kts 198°
2026-04-20 02:32 -21.45391 -63.88932 39902 ft 488 kts 198°
2026-04-20 02:33 -21.52002 -63.90356 39901 ft 488 kts 198°
2026-04-20 02:33 -21.58658 -63.91791 39899 ft 488 kts 198°
2026-04-20 02:34 -21.65309 -63.93224 39897 ft 487 kts 198°
2026-04-20 02:34 -21.71964 -63.94654 39897 ft 487 kts 197°
2026-04-20 02:35 -21.78618 -63.96096 39902 ft 487 kts 198°
2026-04-20 02:35 -21.85271 -63.97538 39887 ft 488 kts 198°
2026-04-20 02:36 -21.91922 -63.98987 39902 ft 487 kts 197°
2026-04-20 02:36 -21.98574 -64.00422 39884 ft 487 kts 198°
2026-04-20 02:37 -22.05228 -64.01863 39883 ft 488 kts 198°
2026-04-20 02:37 -22.11839 -64.03295 39870 ft 487 kts 198°
2026-04-20 02:38 -22.18507 -64.04747 39879 ft 488 kts 198°
2026-04-20 02:38 -22.25114 -64.06382 39872 ft 484 kts 204°
2026-04-20 02:39 -22.31542 -64.08564 39862 ft 484 kts 204°
2026-04-20 02:39 -22.37943 -64.10779 39861 ft 484 kts 204°
2026-04-20 02:40 -22.44363 -64.13012 39865 ft 484 kts 204°
2026-04-20 02:40 -22.50736 -64.15232 39873 ft 484 kts 204°
2026-04-20 02:41 -22.57142 -64.17466 39856 ft 484 kts 204°
2026-04-20 02:41 -22.63548 -64.19703 39857 ft 484 kts 204°
2026-04-20 02:42 -22.69963 -64.21945 39852 ft 484 kts 204°
2026-04-20 02:42 -22.76376 -64.24189 39862 ft 484 kts 204°
2026-04-20 02:43 -22.82794 -64.26436 39865 ft 484 kts 204°
2026-04-20 02:43 -22.89208 -64.28685 39859 ft 485 kts 204°
2026-04-20 02:44 -22.95625 -64.30937 39857 ft 485 kts 204°
2026-04-20 02:44 -23.02050 -64.33194 39860 ft 485 kts 204°
2026-04-20 02:45 -23.08428 -64.35436 39860 ft 485 kts 204°
2026-04-20 02:45 -23.14854 -64.37698 39870 ft 486 kts 204°
2026-04-20 02:46 -23.21286 -64.39964 39861 ft 486 kts 204°
2026-04-20 02:46 -23.27730 -64.42237 39865 ft 486 kts 204°
2026-04-20 02:47 -23.34167 -64.44509 39870 ft 486 kts 204°
2026-04-20 02:47 -23.40604 -64.46784 39868 ft 486 kts 204°
2026-04-20 02:48 -23.47039 -64.49061 39896 ft 486 kts 204°
2026-04-20 02:48 -23.53476 -64.51339 39896 ft 486 kts 205°
2026-04-20 02:49 -23.59912 -64.53622 39895 ft 486 kts 204°
2026-04-20 02:49 -23.66345 -64.55904 39892 ft 486 kts 204°
2026-04-20 02:50 -23.72774 -64.58188 39889 ft 486 kts 205°
2026-04-20 02:50 -23.79203 -64.60474 39889 ft 485 kts 204°
2026-04-20 02:51 -23.85618 -64.62757 39906 ft 485 kts 204°
2026-04-20 02:51 -23.91986 -64.65027 39906 ft 484 kts 204°
2026-04-20 02:52 -23.98410 -64.67318 39902 ft 484 kts 204°
2026-04-20 02:52 -24.04825 -64.69610 39916 ft 485 kts 204°
2026-04-20 02:53 -24.11231 -64.71899 39908 ft 484 kts 204°
2026-04-20 02:53 -24.17634 -64.74190 39924 ft 484 kts 204°
2026-04-20 02:54 -24.23999 -64.76470 39925 ft 484 kts 204°
2026-04-20 02:54 -24.30402 -64.78766 39935 ft 484 kts 204°
2026-04-20 02:55 -24.36808 -64.81066 39946 ft 484 kts 204°
2026-04-20 02:55 -24.43222 -64.83371 39941 ft 484 kts 204°
2026-04-20 02:56 -24.49615 -64.85671 39942 ft 484 kts 204°
2026-04-20 02:56 -24.56022 -64.87978 39957 ft 484 kts 204°
2026-04-20 02:57 -24.62417 -64.90284 39939 ft 484 kts 204°
2026-04-20 02:57 -24.68774 -64.92578 39939 ft 484 kts 204°
2026-04-20 02:58 -24.75176 -64.94891 39939 ft 484 kts 204°
2026-04-20 02:58 -24.81583 -64.97208 39947 ft 484 kts 204°
2026-04-20 02:59 -24.86907 -64.99136 39949 ft 485 kts 204°
2026-04-20 02:59 -24.93323 -65.01461 39954 ft 485 kts 204°
2026-04-20 03:00 -24.99744 -65.03790 39956 ft 485 kts 204°
2026-04-20 03:00 -25.06166 -65.06123 39958 ft 485 kts 204°
2026-04-20 03:01 -25.12587 -65.08458 39955 ft 485 kts 204°
2026-04-20 03:01 -25.18957 -65.10777 39955 ft 485 kts 204°
2026-04-20 03:02 -25.25378 -65.13117 39959 ft 485 kts 204°
2026-04-20 03:02 -25.31785 -65.15448 39900 ft 483 kts 204°
2026-04-20 03:02 -25.34962 -65.16608 39368 ft 481 kts 204°
2026-04-20 03:03 -25.38148 -65.17780 38581 ft 485 kts 205°
2026-04-20 03:03 -25.41360 -65.18955 37674 ft 487 kts 205°
2026-04-20 03:03 -25.44587 -65.20136 36817 ft 490 kts 205°
2026-04-20 03:03 -25.47827 -65.21320 36097 ft 490 kts 204°
2026-04-20 03:04 -25.51070 -65.22505 35378 ft 491 kts 205°
2026-04-20 03:04 -25.54312 -65.23692 34641 ft 492 kts 205°
2026-04-20 03:04 -25.57574 -65.24888 33825 ft 495 kts 204°
2026-04-20 03:04 -25.60855 -65.26093 32931 ft 497 kts 204°
2026-04-20 03:05 -25.64149 -65.27302 32071 ft 498 kts 204°
2026-04-20 03:05 -25.67443 -65.28512 31208 ft 500 kts 204°
2026-04-20 03:05 -25.70754 -65.29727 30558 ft 498 kts 204°
2026-04-20 03:05 -25.74035 -65.30790 29943 ft 500 kts 197°
2026-04-20 03:06 -25.77578 -65.31097 29090 ft 512 kts 181°
2026-04-20 03:06 -25.81124 -65.30589 28414 ft 513 kts 174°
2026-04-20 03:06 -25.84590 -65.29910 27789 ft 510 kts 174°
2026-04-20 03:06 -25.88067 -65.29224 27145 ft 504 kts 174°
2026-04-20 03:07 -25.91503 -65.28558 26547 ft 498 kts 174°
2026-04-20 03:07 -25.94897 -65.27909 25939 ft 494 kts 174°
2026-04-20 03:07 -25.98280 -65.27265 25330 ft 491 kts 174°
2026-04-20 03:07 -26.01638 -65.26674 24713 ft 486 kts 177°
2026-04-20 03:08 -26.04990 -65.26478 24147 ft 479 kts 183°
2026-04-20 03:08 -26.08314 -65.26443 23561 ft 475 kts 183°
2026-04-20 03:08 -26.11614 -65.26426 22917 ft 471 kts 183°
2026-04-20 03:08 -26.14869 -65.26406 22439 ft 463 kts 183°
2026-04-20 03:09 -26.18038 -65.26382 22117 ft 444 kts 183°
2026-04-20 03:09 -26.21054 -65.26355 21511 ft 425 kts 183°
2026-04-20 03:09 -26.23975 -65.26333 20865 ft 411 kts 183°
2026-04-20 03:09 -26.26797 -65.26313 20259 ft 410 kts 183°
2026-04-20 03:10 -26.29673 -65.26293 19766 ft 407 kts 183°
2026-04-20 03:10 -26.32451 -65.26276 19318 ft 403 kts 183°
2026-04-20 03:10 -26.35237 -65.26256 18803 ft 395 kts 182°
2026-04-20 03:10 -26.37952 -65.26232 18038 ft 386 kts 182°
2026-04-20 03:11 -26.40591 -65.26207 17439 ft 372 kts 182°
2026-04-20 03:11 -26.43156 -65.26186 16928 ft 367 kts 182°
2026-04-20 03:11 -26.45720 -65.26167 16498 ft 370 kts 182°
2026-04-20 03:11 -26.48282 -65.26147 16034 ft 367 kts 182°
2026-04-20 03:12 -26.50831 -65.26126 15551 ft 366 kts 182°
2026-04-20 03:12 -26.53370 -65.26106 15066 ft 363 kts 182°
2026-04-20 03:12 -26.55888 -65.26085 14626 ft 361 kts 182°
2026-04-20 03:12 -26.58403 -65.26065 14169 ft 359 kts 182°
2026-04-20 03:13 -26.60860 -65.26045 13786 ft 354 kts 182°
2026-04-20 03:13 -26.63286 -65.25916 13579 ft 345 kts 174°
2026-04-20 03:13 -26.65557 -65.25183 13318 ft 339 kts 155°
2026-04-20 03:13 -26.67487 -65.23719 12952 ft 335 kts 136°
2026-04-20 03:14 -26.68891 -65.21675 12555 ft 329 kts 117°
2026-04-20 03:14 -26.69657 -65.19303 12177 ft 322 kts 99°
2026-04-20 03:14 -26.69760 -65.16837 11751 ft 316 kts 81°
2026-04-20 03:14 -26.69283 -65.14457 11326 ft 312 kts 72°
2026-04-20 03:15 -26.68860 -65.12085 10906 ft 312 kts 83°
2026-04-20 03:15 -26.68882 -65.09679 10626 ft 306 kts 91°
2026-04-20 03:15 -26.69043 -65.07317 10432 ft 304 kts 92°
2026-04-20 03:15 -26.69216 -65.04963 10276 ft 304 kts 92°
2026-04-20 03:16 -26.69384 -65.02613 10005 ft 301 kts 92°
2026-04-20 03:16 -26.69549 -65.00327 9850 ft 290 kts 92°
2026-04-20 03:16 -26.69707 -64.98123 9695 ft 279 kts 92°
2026-04-20 03:16 -26.69860 -64.95990 9441 ft 273 kts 92°
2026-04-20 03:17 -26.70009 -64.93886 9103 ft 270 kts 92°
2026-04-20 03:17 -26.70110 -64.91805 8775 ft 266 kts 85°
2026-04-20 03:17 -26.69709 -64.89834 8507 ft 255 kts 61°
2026-04-20 03:17 -26.68663 -64.88333 8352 ft 239 kts 36°
2026-04-20 03:18 -26.67239 -64.87489 8147 ft 229 kts 13°
2026-04-20 03:18 -26.65694 -64.87226 7927 ft 222 kts
2026-04-20 03:18 -26.64176 -64.87432 7639 ft 219 kts 341°
2026-04-20 03:18 -26.62883 -64.88295 7394 ft 218 kts 317°
2026-04-20 03:19 -26.62052 -64.89677 7155 ft 221 kts 293°
2026-04-20 03:19 -26.61743 -64.91386 6911 ft 223 kts 278°
2026-04-20 03:19 -26.61636 -64.93071 6800 ft 216 kts 277°
2026-04-20 03:19 -26.61541 -64.94755 6729 ft 213 kts 278°
2026-04-20 03:20 -26.61436 -64.96405 6672 ft 213 kts 278°
2026-04-20 03:20 -26.61325 -64.98055 6626 ft 213 kts 277°
2026-04-20 03:20 -26.61212 -64.99680 6572 ft 204 kts 276°
2026-04-20 03:20 -26.61108 -65.01201 6491 ft 189 kts 276°
2026-04-20 03:21 -26.61140 -65.02615 6168 ft 184 kts 260°
2026-04-20 03:21 -26.61721 -65.03861 5777 ft 183 kts 225°
2026-04-20 03:21 -26.62781 -65.04627 5522 ft 181 kts 206°
2026-04-20 03:21 -26.63924 -65.05204 5304 ft 179 kts 204°
2026-04-20 03:22 -26.65055 -65.05756 5124 ft 178 kts 205°
2026-04-20 03:22 -26.66182 -65.06314 4918 ft 173 kts 205°
2026-04-20 03:22 -26.67241 -65.06848 4803 ft 161 kts 205°
2026-04-20 03:22 -26.68237 -65.07336 4551 ft 153 kts 203°
2026-04-20 03:23 -26.69242 -65.07632 4351 ft 146 kts 192°
2026-04-20 03:23 -26.70222 -65.07812 4186 ft 139 kts 191°
2026-04-20 03:23 -26.71174 -65.07991 4146 ft 140 kts 191°
2026-04-20 03:23 -26.72140 -65.08178 4181 ft 141 kts 192°
2026-04-20 03:24 -26.73111 -65.08366 4178 ft 142 kts 191°
2026-04-20 03:24 -26.74098 -65.08556 4087 ft 146 kts 191°
2026-04-20 03:24 -26.75089 -65.08740 3822 ft 143 kts 190°
2026-04-20 03:24 -26.76058 -65.08911 3549 ft 140 kts 190°
2026-04-20 03:25 -26.77032 -65.09083 3163 ft 145 kts 190°
2026-04-20 03:25 -26.78034 -65.09263 2824 ft 146 kts 191°
2026-04-20 03:25 -26.79023 -65.09472 2541 ft 144 kts 193°
2026-04-20 03:25 -26.79989 -65.09667 2196 ft 139 kts 193°
2026-04-20 03:26 -26.80928 -65.09856 1888 ft 134 kts 190°
2026-04-20 03:26 -26.81813 -65.10020 1679 ft 127 kts 190°
2026-04-20 03:26 -26.82689 -65.10214 1535 ft 128 kts 188°
2026-04-20 03:26 -26.83558 -65.10376 1480 ft 121 kts 190°
2026-04-20 03:27 -26.84297 -65.10516 1464 ft 80 kts 188°
2026-04-20 03:27 -26.84736 -65.10600 1457 ft 38 kts 190°
2026-04-20 03:27 -26.84989 -65.10651 1454 ft 37 kts 190°
2026-04-20 03:27 -26.85197 -65.10691 1448 ft 22 kts 191°
2026-04-20 03:28 -26.85327 -65.10740 1447 ft 11 kts 174°
2026-04-20 03:28 -26.85334 -65.10718 1447 ft 1 kts 72°
2026-04-20 03:28 -26.85094 -65.10667 1450 ft 34 kts
2026-04-20 03:29 -26.84866 -65.10628 1455 ft 32 kts
2026-04-20 03:29 -26.84646 -65.10588 1457 ft 32 kts 10°
2026-04-20 03:29 -26.84433 -65.10548 1463 ft 30 kts
2026-04-20 03:29 -26.84256 -65.10534 1463 ft 22 kts 351°
2026-04-20 03:30 -26.84106 -65.10576 1466 ft 22 kts 342°
2026-04-20 03:30 -26.83965 -65.10631 1471 ft 21 kts 340°
2026-04-20 03:30 -26.83830 -65.10687 1474 ft 14 kts 339°
2026-04-20 03:30 -26.83763 -65.10713 1471 ft 7 kts 347°
2026-04-20 03:31 -26.83710 -65.10714 1471 ft 8 kts
2026-04-20 03:31 -26.83656 -65.10716 1477 ft 8 kts 340°
2026-04-20 03:31 -26.83634 -65.10755 1474 ft 5 kts 284°
2026-04-20 03:31 -26.83633 -65.10758 1475 ft 0 kts 283°